Year,Month,Day,Hour,Minute,Value (Times are PST for temperature in C)
2015,04,26,00,00,6.10
2015,04,26,00,05,6.10
2015,04,26,00,06,6.10
2015,04,26,00,07,6.10
2015,04,26,00,08,6.10
2015,04,26,00,09,6.10
2015,04,26,00,10,6.10
2015,04,26,00,11,6.10
2015,04,26,00,12,6.10
2015,04,26,00,13,6.00
2015,04,26,00,14,6.00
2015,04,26,00,15,5.90
2015,04,26,00,16,5.90
2015,04,26,00,17,5.90
2015,04,26,00,18,5.80
2015,04,26,00,19,5.80
2015,04,26,00,20,5.80
2015,04,26,00,21,5.80
2015,04,26,00,22,5.80
2015,04,26,00,23,5.80
2015,04,26,00,24,5.80
2015,04,26,00,25,5.80
2015,04,26,00,26,5.80
2015,04,26,00,27,5.80
2015,04,26,00,28,5.80
2015,04,26,00,29,5.80
2015,04,26,00,30,5.80
2015,04,26,00,31,5.90
2015,04,26,00,32,5.90
2015,04,26,00,33,5.90
2015,04,26,00,34,5.90
2015,04,26,00,35,5.90
2015,04,26,00,36,5.90
2015,04,26,00,37,6.00
2015,04,26,00,38,6.00
2015,04,26,00,39,6.00
2015,04,26,00,40,6.00
2015,04,26,00,41,6.00
2015,04,26,00,42,6.00
2015,04,26,00,43,5.90
2015,04,26,00,44,5.90
2015,04,26,00,45,5.90
2015,04,26,00,46,5.90
2015,04,26,00,47,5.90
2015,04,26,00,48,5.90
2015,04,26,00,49,5.90
2015,04,26,00,50,5.90
2015,04,26,00,51,5.90
2015,04,26,00,52,5.90
2015,04,26,00,53,5.90
2015,04,26,00,54,5.90
2015,04,26,00,55,5.90
2015,04,26,00,56,5.90
2015,04,26,00,57,5.90
2015,04,26,00,58,5.90
2015,04,26,00,59,5.90
2015,04,26,01,00,5.90
2015,04,26,01,01,5.90
2015,04,26,01,02,5.90
2015,04,26,01,03,5.90
2015,04,26,01,04,5.90
2015,04,26,01,05,5.90
2015,04,26,01,06,5.90
2015,04,26,01,07,5.90
2015,04,26,01,08,5.90
2015,04,26,01,09,5.80
2015,04,26,01,10,5.90
2015,04,26,01,11,5.80
2015,04,26,01,12,5.90
2015,04,26,01,13,5.90
2015,04,26,01,14,5.90
2015,04,26,01,15,5.80
2015,04,26,01,16,5.90
2015,04,26,01,17,5.90
2015,04,26,01,18,5.90
2015,04,26,01,19,5.90
2015,04,26,01,20,5.90
2015,04,26,01,21,5.90
2015,04,26,01,22,6.00
2015,04,26,01,23,6.00
2015,04,26,01,24,6.10
2015,04,26,01,25,6.20
2015,04,26,01,26,6.20
2015,04,26,01,27,6.30
2015,04,26,01,28,6.30
2015,04,26,01,29,6.30
2015,04,26,01,30,6.40
2015,04,26,01,31,6.40
2015,04,26,01,32,6.40
2015,04,26,01,33,6.40
2015,04,26,01,34,6.40
2015,04,26,01,35,6.40
2015,04,26,01,36,6.40
2015,04,26,01,37,6.40
2015,04,26,01,38,6.40
2015,04,26,01,39,6.40
2015,04,26,01,40,6.40
2015,04,26,01,41,6.40
2015,04,26,01,42,6.40
2015,04,26,01,43,6.40
2015,04,26,01,44,6.40
2015,04,26,01,45,6.40
2015,04,26,01,46,6.40
2015,04,26,01,47,6.50
2015,04,26,01,48,6.60
2015,04,26,01,49,6.60
2015,04,26,01,50,6.70
2015,04,26,01,51,6.70
2015,04,26,01,52,6.70
2015,04,26,01,53,6.70
2015,04,26,01,54,6.70
2015,04,26,01,55,6.70
2015,04,26,01,56,6.80
2015,04,26,01,57,6.80
2015,04,26,01,58,6.80
2015,04,26,01,59,6.90
2015,04,26,02,00,6.90
2015,04,26,02,01,7.00
2015,04,26,02,02,7.00
2015,04,26,02,03,7.10
2015,04,26,02,04,7.10
2015,04,26,02,05,7.00
2015,04,26,02,06,7.00
2015,04,26,02,07,7.00
2015,04,26,02,08,7.00
2015,04,26,02,09,6.90
2015,04,26,02,10,6.90
2015,04,26,02,11,6.90
2015,04,26,02,12,6.90
2015,04,26,02,13,6.90
2015,04,26,02,14,6.80
2015,04,26,02,15,6.80
2015,04,26,02,16,6.80
2015,04,26,02,17,6.70
2015,04,26,02,18,6.70
2015,04,26,02,19,6.70
2015,04,26,02,20,6.70
2015,04,26,02,21,6.60
2015,04,26,02,22,6.60
2015,04,26,02,23,6.60
2015,04,26,02,24,6.60
2015,04,26,02,25,6.60
2015,04,26,02,26,6.50
2015,04,26,02,27,6.50
2015,04,26,02,28,6.50
2015,04,26,02,29,6.50
2015,04,26,02,30,6.50
2015,04,26,02,31,6.50
2015,04,26,02,32,6.50
2015,04,26,02,33,6.50
2015,04,26,02,34,6.40
2015,04,26,02,35,6.40
2015,04,26,02,36,6.40
2015,04,26,02,37,6.40
2015,04,26,02,38,6.40
2015,04,26,02,39,6.40
2015,04,26,02,40,6.40
2015,04,26,02,41,6.40
2015,04,26,02,42,6.30
2015,04,26,02,43,6.30
2015,04,26,02,44,6.30
2015,04,26,02,45,6.30
2015,04,26,02,46,6.40
2015,04,26,02,47,6.40
2015,04,26,02,48,6.40
2015,04,26,02,49,6.40
2015,04,26,02,50,6.40
2015,04,26,02,51,6.40
2015,04,26,02,52,6.40
2015,04,26,02,53,6.40
2015,04,26,02,54,6.40
2015,04,26,02,55,6.50
2015,04,26,02,56,6.40
2015,04,26,02,57,6.40
2015,04,26,02,58,6.40
2015,04,26,02,59,6.40
2015,04,26,03,00,6.50
2015,04,26,03,01,6.50
2015,04,26,03,02,6.60
2015,04,26,03,03,6.60
2015,04,26,03,04,6.60
2015,04,26,03,05,6.60
2015,04,26,03,06,6.60
2015,04,26,03,07,6.60
2015,04,26,03,08,6.60
2015,04,26,03,09,6.60
2015,04,26,03,10,6.60
2015,04,26,03,11,6.60
2015,04,26,03,12,6.60
2015,04,26,03,13,6.60
2015,04,26,03,14,6.60
2015,04,26,03,15,6.60
2015,04,26,03,16,6.60
2015,04,26,03,17,6.60
2015,04,26,03,18,6.60
2015,04,26,03,19,6.60
2015,04,26,03,20,6.60
2015,04,26,03,21,6.60
2015,04,26,03,22,6.60
2015,04,26,03,23,6.60
2015,04,26,03,24,6.60
2015,04,26,03,25,6.60
2015,04,26,03,26,6.60
2015,04,26,03,27,6.60
2015,04,26,03,28,6.60
2015,04,26,03,29,6.60
2015,04,26,03,30,6.60
2015,04,26,03,31,6.60
2015,04,26,03,32,6.60
2015,04,26,03,33,6.60
2015,04,26,03,34,6.60
2015,04,26,03,35,6.60
2015,04,26,03,36,6.60
2015,04,26,03,37,6.60
2015,04,26,03,38,6.70
2015,04,26,03,39,6.70
2015,04,26,03,40,6.70
2015,04,26,03,41,6.70
2015,04,26,03,42,6.70
2015,04,26,03,43,6.80
2015,04,26,03,44,6.80
2015,04,26,03,45,6.80
2015,04,26,03,46,6.80
2015,04,26,03,47,6.80
2015,04,26,03,48,6.80
2015,04,26,03,49,6.80
2015,04,26,03,50,6.80
2015,04,26,03,51,6.80
2015,04,26,03,52,6.80
2015,04,26,03,53,6.80
2015,04,26,03,54,6.80
2015,04,26,03,55,6.70
2015,04,26,03,56,6.70
2015,04,26,03,57,6.70
2015,04,26,03,58,6.70
2015,04,26,03,59,6.70
2015,04,26,04,00,6.70
2015,04,26,04,01,6.70
2015,04,26,04,02,6.70
2015,04,26,04,03,6.70
2015,04,26,04,04,6.70
2015,04,26,04,05,6.70
2015,04,26,04,06,6.70
2015,04,26,04,07,6.70
2015,04,26,04,08,6.70
2015,04,26,04,09,6.70
2015,04,26,04,10,6.60
2015,04,26,04,11,6.60
2015,04,26,04,12,6.60
2015,04,26,04,13,6.60
2015,04,26,04,14,6.60
2015,04,26,04,15,6.60
2015,04,26,04,16,6.50
2015,04,26,04,17,6.50
2015,04,26,04,18,6.50
2015,04,26,04,19,6.40
2015,04,26,04,20,6.40
2015,04,26,04,21,6.40
2015,04,26,04,22,6.40
2015,04,26,04,23,6.30
2015,04,26,04,24,6.30
2015,04,26,04,25,6.30
2015,04,26,04,26,6.30
2015,04,26,04,27,6.30
2015,04,26,04,28,6.30
2015,04,26,04,29,6.20
2015,04,26,04,30,6.20
2015,04,26,04,31,6.30
2015,04,26,04,32,6.30
2015,04,26,04,33,6.30
2015,04,26,04,34,6.30
2015,04,26,04,35,6.40
2015,04,26,04,36,6.40
2015,04,26,04,37,6.50
2015,04,26,04,38,6.50
2015,04,26,04,39,6.60
2015,04,26,04,40,6.60
2015,04,26,04,41,6.60
2015,04,26,04,42,6.70
2015,04,26,04,43,6.80
2015,04,26,04,44,6.90
2015,04,26,04,45,6.90
2015,04,26,04,46,6.90
2015,04,26,04,47,6.90
2015,04,26,04,48,6.80
2015,04,26,04,49,6.80
2015,04,26,04,50,6.70
2015,04,26,04,51,6.70
2015,04,26,04,52,6.60
2015,04,26,04,53,6.60
2015,04,26,04,54,6.50
2015,04,26,04,55,6.50
2015,04,26,04,56,6.50
2015,04,26,04,57,6.40
2015,04,26,04,58,6.30
2015,04,26,04,59,6.30
2015,04,26,05,00,6.30
2015,04,26,05,01,6.30
2015,04,26,05,02,6.30
2015,04,26,05,03,6.40
2015,04,26,05,04,6.40
2015,04,26,05,05,6.40
2015,04,26,05,06,6.40
2015,04,26,05,07,6.40
2015,04,26,05,08,6.40
2015,04,26,05,09,6.50
2015,04,26,05,10,6.50
2015,04,26,05,11,6.60
2015,04,26,05,12,6.70
2015,04,26,05,13,6.70
2015,04,26,05,14,6.70
2015,04,26,05,15,6.80
2015,04,26,05,16,6.80
2015,04,26,05,17,6.80
2015,04,26,05,18,6.80
2015,04,26,05,19,6.80
2015,04,26,05,20,6.90
2015,04,26,05,21,6.90
2015,04,26,05,22,6.90
2015,04,26,05,23,6.90
2015,04,26,05,24,7.00
2015,04,26,05,25,7.00
2015,04,26,05,26,7.10
2015,04,26,05,27,7.10
2015,04,26,05,28,7.10
2015,04,26,05,29,7.10
2015,04,26,05,30,7.10
2015,04,26,05,31,7.10
2015,04,26,05,32,7.10
2015,04,26,05,33,7.20
2015,04,26,05,34,7.20
2015,04,26,05,35,7.20
2015,04,26,05,36,7.20
2015,04,26,05,37,7.20
2015,04,26,05,38,7.20
2015,04,26,05,39,7.20
2015,04,26,05,40,7.20
2015,04,26,05,41,7.20
2015,04,26,05,42,7.20
2015,04,26,05,43,7.20
2015,04,26,05,44,7.20
2015,04,26,05,45,7.20
2015,04,26,05,46,7.30
2015,04,26,05,47,7.30
2015,04,26,05,48,7.30
2015,04,26,05,49,7.30
2015,04,26,05,50,7.30
2015,04,26,05,51,7.30
2015,04,26,05,52,7.30
2015,04,26,05,53,7.30
2015,04,26,05,54,7.30
2015,04,26,05,55,7.30
2015,04,26,05,56,7.30
2015,04,26,05,57,7.30
2015,04,26,05,58,7.30
2015,04,26,05,59,7.30
2015,04,26,06,00,7.30
2015,04,26,06,01,7.40
2015,04,26,06,02,7.40
2015,04,26,06,03,7.40
2015,04,26,06,04,7.40
2015,04,26,06,05,7.50
2015,04,26,06,06,7.50
2015,04,26,06,07,7.50
2015,04,26,06,08,7.60
2015,04,26,06,09,7.60
2015,04,26,06,10,7.60
2015,04,26,06,11,7.60
2015,04,26,06,12,7.70
2015,04,26,06,13,7.70
2015,04,26,06,14,7.70
2015,04,26,06,15,7.70
2015,04,26,06,16,7.70
2015,04,26,06,17,7.70
2015,04,26,06,18,7.70
2015,04,26,06,19,7.70
2015,04,26,06,20,7.70
2015,04,26,06,21,7.70
2015,04,26,06,22,7.70
2015,04,26,06,23,7.70
2015,04,26,06,24,7.60
2015,04,26,06,25,7.60
2015,04,26,06,26,7.60
2015,04,26,06,27,7.60
2015,04,26,06,28,7.60
2015,04,26,06,29,7.60
2015,04,26,06,30,7.70
2015,04,26,06,31,7.70
2015,04,26,06,32,7.70
2015,04,26,06,33,7.80
2015,04,26,06,34,7.80
2015,04,26,06,35,7.80
2015,04,26,06,36,7.80
2015,04,26,06,37,7.80
2015,04,26,06,38,7.80
2015,04,26,06,39,7.80
2015,04,26,06,40,7.80
2015,04,26,06,41,7.80
2015,04,26,06,42,7.80
2015,04,26,06,43,7.80
2015,04,26,06,44,7.80
2015,04,26,06,45,7.80
2015,04,26,06,46,7.80
2015,04,26,06,47,7.80
2015,04,26,06,48,7.80
2015,04,26,06,49,7.80
2015,04,26,06,50,7.80
2015,04,26,06,51,7.80
2015,04,26,06,52,7.80
2015,04,26,06,53,7.80
2015,04,26,06,54,7.80
2015,04,26,06,55,7.80
2015,04,26,06,56,7.80
2015,04,26,06,57,7.70
2015,04,26,06,58,7.80
2015,04,26,06,59,7.70
2015,04,26,07,00,7.70
2015,04,26,07,01,7.70
2015,04,26,07,02,7.70
2015,04,26,07,03,7.70
2015,04,26,07,04,7.70
2015,04,26,07,05,7.70
2015,04,26,07,06,7.70
2015,04,26,07,07,7.70
2015,04,26,07,08,7.70
2015,04,26,07,09,7.70
2015,04,26,07,10,7.70
2015,04,26,07,11,7.80
2015,04,26,07,12,7.80
2015,04,26,07,13,7.80
2015,04,26,07,14,7.80
2015,04,26,07,15,7.80
2015,04,26,07,16,7.80
2015,04,26,07,17,7.80
2015,04,26,07,18,7.90
2015,04,26,07,19,7.90
2015,04,26,07,20,8.00
2015,04,26,07,21,8.00
2015,04,26,07,22,8.00
2015,04,26,07,23,8.10
2015,04,26,07,24,8.10
2015,04,26,07,25,8.10
2015,04,26,07,26,8.20
2015,04,26,07,27,8.20
2015,04,26,07,28,8.20
2015,04,26,07,29,8.20
2015,04,26,07,30,8.20
2015,04,26,07,31,8.20
2015,04,26,07,32,8.30
2015,04,26,07,33,8.30
2015,04,26,07,34,8.30
2015,04,26,07,35,8.30
2015,04,26,07,36,8.30
2015,04,26,07,37,8.30
2015,04,26,07,38,8.30
2015,04,26,07,39,8.30
2015,04,26,07,40,8.30
2015,04,26,07,41,8.30
2015,04,26,07,42,8.30
2015,04,26,07,43,8.20
2015,04,26,07,44,8.20
2015,04,26,07,45,8.20
2015,04,26,07,46,8.20
2015,04,26,07,47,8.20
2015,04,26,07,48,8.20
2015,04,26,07,49,8.20
2015,04,26,07,50,8.20
2015,04,26,07,51,8.20
2015,04,26,07,52,8.20
2015,04,26,07,53,8.20
2015,04,26,07,54,8.20
2015,04,26,07,55,8.20
2015,04,26,07,56,8.20
2015,04,26,07,57,8.20
2015,04,26,07,58,8.10
2015,04,26,07,59,8.20
2015,04,26,08,00,8.10
2015,04,26,08,01,8.10
2015,04,26,08,02,8.10
2015,04,26,08,03,8.20
2015,04,26,08,04,8.20
2015,04,26,08,05,8.20
2015,04,26,08,06,8.20
2015,04,26,08,07,8.20
2015,04,26,08,08,8.20
2015,04,26,08,09,8.20
2015,04,26,08,10,8.20
2015,04,26,08,11,8.20
2015,04,26,08,12,8.20
2015,04,26,08,13,8.20
2015,04,26,08,14,8.30
2015,04,26,08,15,8.30
2015,04,26,08,16,8.30
2015,04,26,08,17,8.30
2015,04,26,08,18,8.30
2015,04,26,08,19,8.40
2015,04,26,08,20,8.40
2015,04,26,08,21,8.40
2015,04,26,08,22,8.40
2015,04,26,08,23,8.40
2015,04,26,08,24,8.40
2015,04,26,08,25,8.50
2015,04,26,08,26,8.40
2015,04,26,08,27,8.50
2015,04,26,08,28,8.50
2015,04,26,08,29,8.50
2015,04,26,08,30,8.50
2015,04,26,08,31,8.50
2015,04,26,08,32,8.60
2015,04,26,08,33,8.60
2015,04,26,08,34,8.60
2015,04,26,08,35,8.60
2015,04,26,08,36,8.60
2015,04,26,08,37,8.60
2015,04,26,08,38,8.60
2015,04,26,08,39,8.60
2015,04,26,08,40,8.60
2015,04,26,08,41,8.60
2015,04,26,08,42,8.60
2015,04,26,08,43,8.60
2015,04,26,08,44,8.60
2015,04,26,08,45,8.60
2015,04,26,08,46,8.60
2015,04,26,08,47,8.60
2015,04,26,08,48,8.60
2015,04,26,08,49,8.60
2015,04,26,08,50,8.60
2015,04,26,08,51,8.60
2015,04,26,08,52,8.60
2015,04,26,08,53,8.60
2015,04,26,08,54,8.60
2015,04,26,08,55,8.70
2015,04,26,08,56,8.70
2015,04,26,08,57,8.70
2015,04,26,08,58,8.70
2015,04,26,08,59,8.70
2015,04,26,09,00,8.70
2015,04,26,09,01,8.70
2015,04,26,09,02,8.70
2015,04,26,09,03,8.70
2015,04,26,09,04,8.70
2015,04,26,09,05,8.70
2015,04,26,09,06,8.70
2015,04,26,09,07,8.70
2015,04,26,09,08,8.70
2015,04,26,09,09,8.80
2015,04,26,09,10,8.80
2015,04,26,09,11,8.80
2015,04,26,09,12,8.80
2015,04,26,09,13,8.80
2015,04,26,09,14,8.90
2015,04,26,09,15,8.90
2015,04,26,09,16,9.00
2015,04,26,09,17,9.00
2015,04,26,09,18,9.00
2015,04,26,09,19,9.00
2015,04,26,09,20,9.00
2015,04,26,09,21,9.10
2015,04,26,09,22,9.10
2015,04,26,09,23,9.10
2015,04,26,09,24,9.10
2015,04,26,09,25,9.00
2015,04,26,09,26,9.10
2015,04,26,09,27,9.00
2015,04,26,09,28,9.10
2015,04,26,09,29,9.10
2015,04,26,09,30,9.10
2015,04,26,09,31,9.10
2015,04,26,09,32,9.10
2015,04,26,09,33,9.10
2015,04,26,09,34,9.10
2015,04,26,09,35,9.10
2015,04,26,09,36,9.20
2015,04,26,09,37,9.20
2015,04,26,09,38,9.20
2015,04,26,09,39,9.20
2015,04,26,09,40,9.20
2015,04,26,09,41,9.20
2015,04,26,09,42,9.20
2015,04,26,09,43,9.30
2015,04,26,09,44,9.30
2015,04,26,09,45,9.30
2015,04,26,09,46,9.40
2015,04,26,09,47,9.40
2015,04,26,09,48,9.40
2015,04,26,09,49,9.40
2015,04,26,09,50,9.40
2015,04,26,09,51,9.40
2015,04,26,09,52,9.40
2015,04,26,09,53,9.40
2015,04,26,09,54,9.40
2015,04,26,09,55,9.40
2015,04,26,09,56,9.50
2015,04,26,09,57,9.50
2015,04,26,09,58,9.50
2015,04,26,09,59,9.60
2015,04,26,10,00,9.60
2015,04,26,10,01,9.60
2015,04,26,10,02,9.60
2015,04,26,10,03,9.60
2015,04,26,10,04,9.60
2015,04,26,10,05,9.60
2015,04,26,10,06,9.70
2015,04,26,10,07,9.70
2015,04,26,10,08,9.70
2015,04,26,10,09,9.70
2015,04,26,10,10,9.80
2015,04,26,10,11,9.80
2015,04,26,10,12,9.80
2015,04,26,10,13,9.90
2015,04,26,10,14,9.90
2015,04,26,10,15,10.00
2015,04,26,10,16,10.00
2015,04,26,10,17,10.00
2015,04,26,10,18,10.00
2015,04,26,10,19,10.10
2015,04,26,10,20,10.10
2015,04,26,10,21,10.10
2015,04,26,10,22,10.10
2015,04,26,10,23,10.10
2015,04,26,10,24,10.10
2015,04,26,10,25,10.10
2015,04,26,10,26,10.10
2015,04,26,10,27,10.20
2015,04,26,10,28,10.20
2015,04,26,10,29,10.20
2015,04,26,10,30,10.10
2015,04,26,10,31,10.20
2015,04,26,10,32,10.20
2015,04,26,10,33,10.20
2015,04,26,10,34,10.20
2015,04,26,10,35,10.20
2015,04,26,10,36,10.20
2015,04,26,10,37,10.20
2015,04,26,10,38,10.20
2015,04,26,10,39,10.20
2015,04,26,10,40,10.20
2015,04,26,10,41,10.20
2015,04,26,10,42,10.20
2015,04,26,10,43,10.20
2015,04,26,10,44,10.20
2015,04,26,10,45,10.20
2015,04,26,10,46,10.20
2015,04,26,10,47,10.30
2015,04,26,10,48,10.30
2015,04,26,10,49,10.30
2015,04,26,10,50,10.40
2015,04,26,10,51,10.40
2015,04,26,10,52,10.40
2015,04,26,10,53,10.50
2015,04,26,10,54,10.50
2015,04,26,10,55,10.50
2015,04,26,10,56,10.60
2015,04,26,10,57,10.60
2015,04,26,10,58,10.60
2015,04,26,10,59,10.60
2015,04,26,11,00,10.60
2015,04,26,11,01,10.60
2015,04,26,11,02,10.60
2015,04,26,11,03,10.60
2015,04,26,11,04,10.60
2015,04,26,11,05,10.60
2015,04,26,11,06,10.60
2015,04,26,11,07,10.60
2015,04,26,11,08,10.60
2015,04,26,11,09,10.60
2015,04,26,11,10,10.50
2015,04,26,11,11,10.50
2015,04,26,11,12,10.40
2015,04,26,11,13,10.50
2015,04,26,11,14,10.50
2015,04,26,11,15,10.50
2015,04,26,11,16,10.50
2015,04,26,11,17,10.50
2015,04,26,11,18,10.60
2015,04,26,11,19,10.60
2015,04,26,11,20,10.60
2015,04,26,11,21,10.60
2015,04,26,11,22,10.70
2015,04,26,11,23,10.70
2015,04,26,11,24,10.70
2015,04,26,11,25,10.70
2015,04,26,11,26,10.70
2015,04,26,11,27,10.70
2015,04,26,11,28,10.70
2015,04,26,11,29,10.70
2015,04,26,11,30,10.70
2015,04,26,11,31,10.70
2015,04,26,11,32,10.70
2015,04,26,11,33,10.70
2015,04,26,11,34,10.70
2015,04,26,11,35,10.70
2015,04,26,11,36,10.70
2015,04,26,11,37,10.70
2015,04,26,11,38,10.70
2015,04,26,11,39,10.70
2015,04,26,11,40,10.70
2015,04,26,11,41,10.70
2015,04,26,11,42,10.70
2015,04,26,11,43,10.80
2015,04,26,11,44,10.80
2015,04,26,11,45,10.80
2015,04,26,11,46,10.80
2015,04,26,11,47,10.90
2015,04,26,11,48,10.90
2015,04,26,11,49,10.90
2015,04,26,11,50,10.80
2015,04,26,11,51,10.80
2015,04,26,11,52,10.80
2015,04,26,11,53,10.80
2015,04,26,11,54,10.70
2015,04,26,11,55,10.70
2015,04,26,11,56,10.70
2015,04,26,11,57,10.70
2015,04,26,11,58,10.70
2015,04,26,11,59,10.70
2015,04,26,12,00,10.80
2015,04,26,12,01,10.80
2015,04,26,12,02,10.80
2015,04,26,12,03,10.80
2015,04,26,12,04,10.90
2015,04,26,12,05,10.90
2015,04,26,12,06,10.90
2015,04,26,12,07,10.90
2015,04,26,12,08,10.90
2015,04,26,12,09,10.90
2015,04,26,12,10,10.90
2015,04,26,12,11,10.90
2015,04,26,12,12,10.90
2015,04,26,12,13,10.90
2015,04,26,12,14,10.90
2015,04,26,12,15,10.90
2015,04,26,12,16,11.00
2015,04,26,12,17,11.00
2015,04,26,12,18,11.10
2015,04,26,12,19,11.10
2015,04,26,12,20,11.10
2015,04,26,12,21,11.10
2015,04,26,12,22,11.10
2015,04,26,12,23,11.00
2015,04,26,12,24,11.00
2015,04,26,12,25,10.90
2015,04,26,12,26,10.90
2015,04,26,12,27,10.80
2015,04,26,12,28,10.80
2015,04,26,12,29,10.90
2015,04,26,12,30,10.90
2015,04,26,12,31,10.80
2015,04,26,12,32,10.90
2015,04,26,12,33,10.90
2015,04,26,12,34,11.00
2015,04,26,12,35,11.00
2015,04,26,12,36,11.10
2015,04,26,12,37,11.10
2015,04,26,12,38,11.10
2015,04,26,12,39,11.10
2015,04,26,12,40,11.10
2015,04,26,12,41,11.10
2015,04,26,12,42,11.10
2015,04,26,12,43,11.10
2015,04,26,12,44,11.10
2015,04,26,12,45,11.10
2015,04,26,12,46,11.10
2015,04,26,12,47,11.00
2015,04,26,12,48,11.10
2015,04,26,12,49,11.00
2015,04,26,12,50,11.00
2015,04,26,12,51,11.10
2015,04,26,12,52,11.10
2015,04,26,12,53,11.10
2015,04,26,12,54,11.00
2015,04,26,12,55,11.00
2015,04,26,12,56,11.00
2015,04,26,12,57,10.90
2015,04,26,12,58,10.90
2015,04,26,12,59,10.80
2015,04,26,13,00,10.80
2015,04,26,13,01,10.80
2015,04,26,13,02,10.80
2015,04,26,13,03,10.70
2015,04,26,13,04,10.70
2015,04,26,13,05,10.70
2015,04,26,13,06,10.70
2015,04,26,13,07,10.60
2015,04,26,13,08,10.60
2015,04,26,13,09,10.60
2015,04,26,13,10,10.70
2015,04,26,13,11,10.70
2015,04,26,13,12,10.60
2015,04,26,13,13,10.60
2015,04,26,13,14,10.70
2015,04,26,13,15,10.70
2015,04,26,13,16,10.70
2015,04,26,13,17,10.70
2015,04,26,13,18,10.70
2015,04,26,13,19,10.70
2015,04,26,13,20,10.70
2015,04,26,13,21,10.70
2015,04,26,13,22,10.70
2015,04,26,13,23,10.70
2015,04,26,13,24,10.70
2015,04,26,13,25,10.80
2015,04,26,13,26,10.80
2015,04,26,13,27,10.80
2015,04,26,13,28,10.70
2015,04,26,13,29,10.70
2015,04,26,13,30,10.70
2015,04,26,13,31,10.70
2015,04,26,13,32,10.70
2015,04,26,13,33,10.80
2015,04,26,13,34,10.80
2015,04,26,13,35,10.80
2015,04,26,13,36,10.80
2015,04,26,13,37,10.80
2015,04,26,13,38,10.80
2015,04,26,13,39,10.90
2015,04,26,13,40,10.90
2015,04,26,13,41,10.90
2015,04,26,13,42,10.90
2015,04,26,13,43,10.90
2015,04,26,13,44,10.90
2015,04,26,13,45,10.90
2015,04,26,13,46,10.90
2015,04,26,13,47,10.90
2015,04,26,13,48,10.80
2015,04,26,13,49,10.80
2015,04,26,13,50,10.80
2015,04,26,13,51,10.80
2015,04,26,13,52,10.80
2015,04,26,13,53,10.80
2015,04,26,13,54,10.70
2015,04,26,13,55,10.70
2015,04,26,13,56,10.70
2015,04,26,13,57,10.70
2015,04,26,13,58,10.70
2015,04,26,13,59,10.60
2015,04,26,14,00,10.60
2015,04,26,14,01,10.70
2015,04,26,14,02,10.60
2015,04,26,14,03,10.60
2015,04,26,14,04,10.60
2015,04,26,14,05,10.60
2015,04,26,14,06,10.60
2015,04,26,14,07,10.50
2015,04,26,14,08,10.50
2015,04,26,14,09,10.50
2015,04,26,14,10,10.50
2015,04,26,14,11,10.60
2015,04,26,14,12,10.60
2015,04,26,14,13,10.60
2015,04,26,14,14,10.60
2015,04,26,14,15,10.60
2015,04,26,14,16,10.60
2015,04,26,14,17,10.50
2015,04,26,14,18,10.50
2015,04,26,14,19,10.50
2015,04,26,14,20,10.50
2015,04,26,14,21,10.40
2015,04,26,14,22,10.40
2015,04,26,14,23,10.40
2015,04,26,14,24,10.40
2015,04,26,14,25,10.40
2015,04,26,14,26,10.40
2015,04,26,14,27,10.50
2015,04,26,14,28,10.50
2015,04,26,14,29,10.50
2015,04,26,14,30,10.50
2015,04,26,14,31,10.60
2015,04,26,14,32,10.60
2015,04,26,14,33,10.60
2015,04,26,14,34,10.60
2015,04,26,14,35,10.50
2015,04,26,14,36,10.50
2015,04,26,14,37,10.50
2015,04,26,14,38,10.50
2015,04,26,14,39,10.60
2015,04,26,14,40,10.60
2015,04,26,14,41,10.60
2015,04,26,14,42,10.60
2015,04,26,14,43,10.60
2015,04,26,14,44,10.60
2015,04,26,14,45,10.70
2015,04,26,14,46,10.70
2015,04,26,14,47,10.70
2015,04,26,14,48,10.70
2015,04,26,14,49,10.70
2015,04,26,14,50,10.60
2015,04,26,14,51,10.60
2015,04,26,14,52,10.60
2015,04,26,14,53,10.60
2015,04,26,14,54,10.60
2015,04,26,14,55,10.60
2015,04,26,14,56,10.70
2015,04,26,14,57,10.70
2015,04,26,14,58,10.70
2015,04,26,14,59,10.80
2015,04,26,15,00,10.80
2015,04,26,15,01,10.80
2015,04,26,15,02,10.80
2015,04,26,15,03,10.80
2015,04,26,15,04,10.80
2015,04,26,15,05,10.80
2015,04,26,15,06,10.80
2015,04,26,15,07,10.70
2015,04,26,15,08,10.70
2015,04,26,15,09,10.70
2015,04,26,15,10,10.70
2015,04,26,15,11,10.70
2015,04,26,15,12,10.70
2015,04,26,15,13,10.70
2015,04,26,15,14,10.70
2015,04,26,15,15,10.70
2015,04,26,15,16,10.70
2015,04,26,15,17,10.70
2015,04,26,15,18,10.70
2015,04,26,15,19,10.70
2015,04,26,15,20,10.60
2015,04,26,15,21,10.60
2015,04,26,15,22,10.60
2015,04,26,15,23,10.60
2015,04,26,15,24,10.60
2015,04,26,15,25,10.60
2015,04,26,15,26,10.60
2015,04,26,15,27,10.60
2015,04,26,15,28,10.60
2015,04,26,15,29,10.60
2015,04,26,15,30,10.60
2015,04,26,15,31,10.60
2015,04,26,15,32,10.60
2015,04,26,15,33,10.70
2015,04,26,15,34,10.70
2015,04,26,15,35,10.70
2015,04,26,15,36,10.70
2015,04,26,15,37,10.60
2015,04,26,15,38,10.60
2015,04,26,15,39,10.60
2015,04,26,15,40,10.60
2015,04,26,15,41,10.60
2015,04,26,15,42,10.60
2015,04,26,15,43,10.60
2015,04,26,15,44,10.60
2015,04,26,15,45,10.50
2015,04,26,15,46,10.50
2015,04,26,15,47,10.40
2015,04,26,15,48,10.40
2015,04,26,15,49,10.40
2015,04,26,15,50,10.30
2015,04,26,15,51,10.30
2015,04,26,15,52,10.30
2015,04,26,15,53,10.30
2015,04,26,15,54,10.30
2015,04,26,15,55,10.20
2015,04,26,15,56,10.20
2015,04,26,15,57,10.20
2015,04,26,15,58,10.20
2015,04,26,15,59,10.20
2015,04,26,16,00,10.20
2015,04,26,16,01,10.10
2015,04,26,16,02,10.10
2015,04,26,16,03,10.10
2015,04,26,16,04,10.10
2015,04,26,16,05,10.10
2015,04,26,16,06,10.10
2015,04,26,16,07,10.10
2015,04,26,16,08,10.10
2015,04,26,16,09,10.10
2015,04,26,16,10,10.10
2015,04,26,16,11,10.10
2015,04,26,16,12,10.10
2015,04,26,16,13,10.10
2015,04,26,16,14,10.10
2015,04,26,16,15,10.10
2015,04,26,16,16,10.10
2015,04,26,16,17,10.10
2015,04,26,16,18,10.10
2015,04,26,16,19,10.10
2015,04,26,16,20,10.10
2015,04,26,16,21,10.10
2015,04,26,16,22,10.10
2015,04,26,16,23,10.10
2015,04,26,16,24,10.10
2015,04,26,16,25,10.10
2015,04,26,16,26,10.10
2015,04,26,16,27,10.10
2015,04,26,16,28,10.10
2015,04,26,16,29,10.10
2015,04,26,16,30,10.10
2015,04,26,16,31,10.10
2015,04,26,16,32,10.10
2015,04,26,16,33,10.00
2015,04,26,16,34,10.00
2015,04,26,16,35,10.00
2015,04,26,16,36,10.00
2015,04,26,16,37,10.00
2015,04,26,16,38,10.00
2015,04,26,16,39,10.00
2015,04,26,16,40,10.00
2015,04,26,16,41,10.10
2015,04,26,16,42,10.10
2015,04,26,16,43,10.10
2015,04,26,16,44,10.10
2015,04,26,16,45,10.10
2015,04,26,16,46,10.10
2015,04,26,16,47,10.10
2015,04,26,16,48,10.10
2015,04,26,16,49,10.10
2015,04,26,16,50,10.10
2015,04,26,16,51,10.10
2015,04,26,16,52,10.10
2015,04,26,16,53,10.20
2015,04,26,16,54,10.20
2015,04,26,16,55,10.20
2015,04,26,16,56,10.20
2015,04,26,16,57,10.20
2015,04,26,16,58,10.20
2015,04,26,16,59,10.20
2015,04,26,17,00,10.20
2015,04,26,17,01,10.20
2015,04,26,17,02,10.30
2015,04,26,17,03,10.30
2015,04,26,17,04,10.30
2015,04,26,17,05,10.30
2015,04,26,17,06,10.30
2015,04,26,17,07,10.30
2015,04,26,17,08,10.30
2015,04,26,17,09,10.40
2015,04,26,17,10,10.40
2015,04,26,17,11,10.40
2015,04,26,17,12,10.40
2015,04,26,17,13,10.30
2015,04,26,17,14,10.30
2015,04,26,17,15,10.30
2015,04,26,17,16,10.30
2015,04,26,17,17,10.30
2015,04,26,17,18,10.30
2015,04,26,17,19,10.30
2015,04,26,17,20,10.30
2015,04,26,17,21,10.30
2015,04,26,17,22,10.30
2015,04,26,17,23,10.20
2015,04,26,17,24,10.20
2015,04,26,17,25,10.20
2015,04,26,17,26,10.20
2015,04,26,17,27,10.20
2015,04,26,17,28,10.20
2015,04,26,17,29,10.20
2015,04,26,17,30,10.20
2015,04,26,17,31,10.30
2015,04,26,17,32,10.30
2015,04,26,17,33,10.30
2015,04,26,17,34,10.30
2015,04,26,17,35,10.30
2015,04,26,17,36,10.30
2015,04,26,17,37,10.40
2015,04,26,17,38,10.40
2015,04,26,17,39,10.40
2015,04,26,17,40,10.40
2015,04,26,17,41,10.40
2015,04,26,17,42,10.40
2015,04,26,17,43,10.40
2015,04,26,17,44,10.50
2015,04,26,17,45,10.50
2015,04,26,17,46,10.50
2015,04,26,17,47,10.50
2015,04,26,17,48,10.50
2015,04,26,17,49,10.60
2015,04,26,17,50,10.60